Regional Weather Roundup
Issued by NWS

Home | Current Version | Previous Version | Graphics & Text | Print | Product List | Glossary On
Versions: 1 2 3 4 5 6 7 8 9 10 11 12 13 14 15 16 17 18 19 20 21 22 23 24 25 26 27
000
ASUS45 KCYS 271210
RWRWY

WYOMING REGIONAL WEATHER ROUNDUP
NATIONAL WEATHER SERVICE CHEYENNE WY
600 AM MDT SAT MAY 27 2017

NOTE:  "FAIR" INDICATES FEW OR NO CLOUDS BELOW 12,000 FEET
WITH NO SIGNIFICANT WEATHER AND/OR OBSTRUCTIONS TO VISIBILITY.

WYZ001-271300-
YELLOWSTONE NATIONAL PARK

CITY           SKY/WX    TMP DP  RH WIND       PRES   REMARKS
LK YELLOWSTONE   N/A     29  29 100 CALM      30.22R
6HR MIN TEMP:  27; 6HR MAX TEMP:  30;

W YELLOWSTONE  NOT AVBL

$$
WYZ002>013-054>058-071-098>099-271300-
NORTHERN WYOMING

CITY           SKY/WX    TMP DP  RH WIND       PRES   REMARKS
JACKSON        FAIR      28  28 100 E6        30.19R WCI  22
CODY           FAIR      41  33  73 CALM      30.12R
GREYBULL       FAIR      36  34  92 SE3       30.10R
6HR MIN TEMP:  36; 6HR MAX TEMP:  48;

WORLAND        FAIR      35  35 100 S6        30.10R WCI  30
6HR MIN TEMP:  35; 6HR MAX TEMP:  44;

SHERIDAN       CLOUDY    41  36  82 S5        30.05S
6HR MIN TEMP:  35; 6HR MAX TEMP:  45;

BUFFALO        FAIR      39  31  72 W7        30.08R WCI  34
6HR MIN TEMP:  37; 6HR MAX TEMP:  48;

GILLETTE       FAIR      43  41  93 W12       30.04S
6HR MIN TEMP:  42; 6HR MAX TEMP:  47; 6HR PCP:  0.01;

HULETT         FAIR      43  41  93 S6        30.05R
NEWCASTLE      FAIR      45  43  93 N7        30.04S

$$
WYZ014>020-022>026-101>103-271300-
CENTRAL WYOMING

CITY           SKY/WX    TMP DP  RH WIND       PRES   REMARKS
BIG PINEY      FAIR      32  28  85 N8        30.16R WCI  25
6HR MIN TEMP:  29; 6HR MAX TEMP:  38;

PINEDALE       FAIR      27  25  93 NW3       30.17R
DUBOIS         PTSUNNY   32  30  93 NW8       30.16R WCI  25
LANDER         FAIR      38  34  85 CALM      30.11R
6HR MIN TEMP:  38; 6HR MAX TEMP:  43; 6HR PCP:  0.03;

RIVERTON       FAIR      38  36  92 NW10      30.12R WCI  31
6HR MIN TEMP:  38; 6HR MAX TEMP:  44;

CASPER         CLOUDY    43  41  93 SW5       30.09R
6HR MIN TEMP:  39; 6HR MAX TEMP:  44;

DOUGLAS        CLOUDY    42  40  92 CALM      30.08R
6HR MIN TEMP:  40; 6HR MAX TEMP:  45;


$$
WYZ021-027>030-104>119-271300-
SOUTHERN WYOMING

CITY           SKY/WX    TMP DP  RH WIND       PRES   REMARKS
EVANSTON       FAIR      35  33  92 NW5       30.18R WCI  31
6HR MIN TEMP:  34; 6HR MAX TEMP:  38;

KEMMERER         N/A     32  30  93 NW3       30.17R
FORT BRIDGER   FAIR      36  34  93 SW9       30.20R WCI  29
ROCK SPRINGS   CLOUDY    36  35  96 SW3       30.14R
6HR MIN TEMP:  36; 6HR MAX TEMP:  39;

DIXON            N/A     39  38  93 CALM      30.15R
RAWLINS        CLOUDY    38  35  89 W5        30.12R WCI  34
6HR MIN TEMP:  37; 6HR MAX TEMP:  44; 6HR PCP:  0.03;

SARATOGA       CLOUDY    37  37 100 NW5       30.13R WCI  34
LARAMIE        MOCLDY    37  35  92 N3        30.10R
6HR MIN TEMP:  36; 6HR MAX TEMP:  41; 6HR PCP:  0.01;

CHEYENNE       CLOUDY    43  38  82 N9        30.07R
6HR MIN TEMP:  42; 6HR MAX TEMP:  45; 6HR PCP: TRACE;

TORRINGTON     CLOUDY    47  46  97 NW3       30.02R
6HR MIN TEMP:  45; 6HR MAX TEMP:  47;

PINE BLUFFS    CLOUDY    45  43  93 NW8       30.04R

$$




USA.gov is the U.S. government's official web portal to all federal, state and local government web resources and services.